Location: Cahas Mountain Overlook
(37.0833°N, 80.1000°W)
Time: 10:33:18
(UTC-04:00)

A-11 Canister half - Pass Details

Date: 09 February 2026
Orbit: 1524 x 1683 km, 47.3° (Epoch: 16 March)

Event Time Altitude Azimuth Distance (km) Brightness Sun altitude
Rises 19:08:12 0° 242° (WSW) 4,690 12.9 -15.2°
Reaches altitude 10° 19:11:16 10° 244° (WSW) 3,697 12.1 -15.9°
Maximum altitude 19:20:35 77° 330° (NNW) 1,560 9.0 -17.7°
Enters shadow 19:27:34 20° 55° (NE) 2,970 10.0 -19.1°
